Regional Weather Roundup
Issued by NWS

Home | Current Version | Previous Version | Text Only | Print | Product List | Glossary Off
Versions: 1 2 3 4 5 6 7 8 9 10 11 12 13 14 15 16 17 18 19 20 21 22 23 24 25 26 27 28 29 30 31 32 33 34 35 36 37 38 39 40 41 42 43 44 45 46 47 48 49 50

000
ASUS43 KIND 131259
RWRIN

WEATHER ROUNDUP FOR INDIANA
NATIONAL WEATHER SERVICE INDIANAPOLIS IN
800 AM EST WED DEC 13 2017

NOTE: "FAIR" INDICATES FEW OR NO CLOUDS BELOW 12,000 FEET WITH NO
SIGNIFICANT WEATHER AND/OR OBSTRUCTIONS TO VISIBILITY.

* - STATION DOES NOT REPORT WEATHER SUCH AS PRECIPITATION OR FOG.

+ - STATION NOT QUALITY CONTROLLED BY THE NATIONAL WEATHER SERVICE.
    USE DATA WITH CAUTION...ESPECIALLY DEWPOINT AND RELATIVE
    HUMIDITY OBSERVATIONS.

INZ001>003-010>013-019-020-131400-
NORTHWEST INDIANA

CITY           SKY/WX    TMP DP  RH WIND       PRES   REMARKS
GARY /AIRPORT/ CLOUDY    27   9  46 S12       29.69F WCI  16
KNOX *+        CLOUDY    23  12  63 S12       29.75F WCI  12
LA PORTE +     CLOUDY    21  11  67 S9        29.73F WCI  10
MICHIGAN CITY+ CLOUDY    23  10  58 S9        29.71F WCI  13
MONTICELLO +   CLOUDY    24   9  53 S8        29.76F WCI  15
RENSSELAER +   CLOUDY    27   5  39 S13       29.73F WCI  16

$$

LMZ046-743>745-131400-
SOUTHERN LAKE MICHIGAN

STATION/POSITION TIME  TEMP    WIND        PRES    WAVE
                       AIR SEA DIR/SP/G            HT
                 (UTC) (F)     (DEG/KT/KT) (MB)    (FT)
BURNS HARBOR     1230   24     180/ 14/ 21 1006.8F
MICHIGAN CITY    1230   22     160/  8/ 11   N/A

$$

INZ004-005-014>016-021>024-131400-
NORTH CENTRAL INDIANA

CITY           SKY/WX    TMP DP  RH WIND       PRES   REMARKS
ELKHART        CLOUDY    19   9  63 S8        29.75F WCI   9
GOSHEN         CLOUDY    20   9  62 S13       29.76F WCI   7
PERU/GRISSOM   CLOUDY    23  10  56 S12       29.78F WCI  11
ROCHESTER +    CLOUDY    25  14  63 S12       29.76F WCI  14
SOUTH BEND     CLOUDY    20  11  68 S12       29.74F WCI   8
WARSAW +       CLOUDY    21  10  63 S7        29.77F WCI  13

$$

INZ006>009-017-018-025>027-131400-
NORTHEAST INDIANA

CITY           SKY/WX    TMP DP  RH WIND       PRES   REMARKS
AUBURN +       CLOUDY    21  10  63 S6        29.80F WCI  14
FORT WAYNE     CLOUDY    20  12  71 S9        29.81F WCI   9
KENDALLVILLE + CLOUDY    18  11  73 S8        29.78F WCI   8

$$

INZ028-029-035-036-043>045-051>053-131400-
WEST CENTRAL INDIANA

CITY           SKY/WX    TMP DP  RH WIND       PRES   REMARKS
CRAWFORDSVL +  CLOUDY    23  10  56 S12G17      N/A  WCI  12
GREENCASTLE +  CLOUDY    23  10  58 S6        29.82F WCI  16
LAFAYETTE      CLOUDY    24  10  55 S7        29.77F WCI  16
TERRE HAUTE    CLOUDY    26   8  46 S15       29.82F WCI  14

$$

INZ030>032-037>040-046>048-054>057-064-065-131400-
CENTRAL INDIANA

CITY           SKY/WX    TMP DP  RH WIND       PRES   REMARKS
COLUMBUS       CLOUDY    21   7  53 S12       29.88F WCI   9
FRANKFORT +    CLOUDY    27  10  50 S9        29.81F WCI  18
INDIANAPOLIS   CLOUDY    23   8  52 S9        29.83F WCI  13
-EAGLE CREEK   CLOUDY    23   8  52 S7        29.82F WCI  15
KOKOMO +       CLOUDY    22  11  62 S13       29.81F WCI  10
MT COMFORT *+  CLOUDY    21  14  73 S9        29.84S WCI  11
SHELBYVILLE    CLOUDY    22  10  60 S13       29.86F WCI  10
ZIONSVILLE +   CLOUDY    22   8  54 S9        29.81F WCI  12

$$

INZ033-034-041-042-049-050-058-059-131400-
EAST CENTRAL INDIANA

CITY           SKY/WX    TMP DP  RH WIND       PRES   REMARKS
MUNCIE         CLOUDY    22   8  55 S9        29.83F WCI  12
RICHMOND +     CLOUDY    19  12  73 S12       29.86F WCI   7

$$

INZ060-061-067>069-081>083-085>088-131400-
SOUTHWEST INDIANA

CITY           SKY/WX    TMP DP  RH WIND       PRES   REMARKS
EVANSVILLE     FLURRIES  27  14  58 SW12      29.92F WCI  17
HUNTINGBURG +  CLOUDY    22  14  71 S7        29.91F WCI  13

$$

INZ062-063-066-070>080-084-089>092-131400-
SOUTH CENTRAL AND SOUTHEAST INDIANA

CITY           SKY/WX    TMP DP  RH WIND       PRES   REMARKS
BLOOMINGTON    CLOUDY    22   8  55 S7        29.84F WCI  13
MADISON *+     CLEAR     23  10  58 S6        29.91F WCI  16
SEYMOUR +      CLOUDY    21  10  63 S7        29.89F WCI  13

$$





USA.gov is the U.S. government's official web portal to all federal, state and local government web resources and services.